Regional Weather Roundup
Issued by NWS

Home | Current Version | Previous Version | Text Only | Print | Product List | Glossary Off
Versions: 1 2 3 4 5 6 7 8 9 10 11 12 13 14 15 16 17 18 19 20 21 22 23 24 25 26 27 28 29 30 31 32 33 34 35 36 37 38 39 40 41 42 43 44 45 46 47 48 49 50

000
ASUS44 KFWD 272315
RWRTX
NORTH TEXAS HOURLY WEATHER ROUNDUP
NATIONAL WEATHER SERVICE FORT WORTH TX
600 PM CDT WED AUG 27 2014

NOTE: "FAIR" INDICATES FEW OR NO CLOUDS BELOW 12,000 FEET WITH NO
SIGNIFICANT WEATHER AND/OR OBSTRUCTIONS TO VISIBILITY.

TXZ118-119-280000-
DALLAS/FORT WORTH METROPLEX

CITY           SKY/WX    TMP DP  RH WIND       PRES   REMARKS
DFW AIRPORT    MOSUNNY   92  65  40 E10       29.95F HX  94
DALLAS LOVE    MOSUNNY   93  65  39 SE8G18    29.95F HX  95
FTW MEACHAM    SUNNY     95  64  35 E14       29.95F HX  97
DAL-EXECUTIVE  SUNNY     95  63  34 E15       29.96F HX  96
FTW-ALLIANCE   MOSUNNY   94  64  37 SE10      29.95F HX  95
FTW-NAS-JRB    MOSUNNY   97  61  30 SE10      29.99F HX  97
FTW-SPINKS     MOSUNNY   93  64  38 E6        29.97F HX  95
ARLINGTON      MOSUNNY   92  63  38 SE10      29.96F HX  93
GRAND PRAIRIE  SUNNY     93  61  33 NE10G16   29.97F HX  93
ADDISON        MOSUNNY   93  64  38 E7        29.97F HX  95
MESQUITE       SUNNY     93  59  31 E8        29.96F HX  92
LANCASTER      MOSUNNY   92  59  32 E12       29.96F HX  92
$$

TXZ091>094-102>105-117-120-121-131>134-280000-
NORTH CENTRAL TEXAS

CITY           SKY/WX    TMP DP  RH WIND       PRES   REMARKS
SHRMAN/DENISON SUNNY     93  62  35 E8        29.99S HX  94
GAINESVILLE    SUNNY     89  66  47 E10       29.99S HX  91
BOWIE          SUNNY     92  62  37 E6        29.98F HX  92
BRIDGEPORT     PTSUNNY   95  57  28 SE9       29.98S HX  94
DECATUR        SUNNY     92  62  35 E12       29.97F HX  92
DENTON         MOSUNNY   93  65  39 E12       29.95F HX  95
MCKINNEY       SUNNY     92  65  40 SE9       29.97S HX  94
GREENVILLE     SUNNY     91  57  31 SE7       29.97F HX  90
ROCKWALL       SUNNY     91  64  40 E8G18     29.96F HX  92
TERRELL        SUNNY     94  59  31 E15       29.97F HX  93
WAXAHACHIE     MOSUNNY   92  58  31 E7        29.97F HX  91
CLEBURNE       MOSUNNY   91  64  40 E8        29.98F HX  93
GRANBURY       SUNNY     95  62  32 SE9G16    29.97S HX  96
$$

TXZ083>090-098>101-113>116-127>130-139>142-154-155-280000-
WESTERN NORTH TEXAS

CITY           SKY/WX    TMP DP  RH WIND       PRES   REMARKS
WICHITA FALLS  MOSUNNY   97  62  31 SE13      29.94F HX  98
WF-KICKAPOO    SUNNY     97  58  27 SE14G20   29.96S HX  96
VERNON         MOSUNNY   98  56  24 SE10      29.96S HX  96
ABILENE        MOSUNNY   96  58  27 SE13      29.97F HX  95
ABILENE-DYESS  MOSUNNY   93  61  33 S7        29.96F HX  93
BRECKENRIDGE   SUNNY     97  56  25 SE10      29.94F HAZE    HX  96
GRAHAM         SUNNY     97  58  27 E9        29.94F HX  96
MINERAL WELLS  MOSUNNY   96  61  31 SE13      29.95F HX  96
STEPHENVILLE   MOSUNNY   95  58  29 E8        30.00F HX  94
COMANCHE         N/A     94  59  30 SE10      29.97F HX  94
BROWNWOOD      MOSUNNY   95  59  30 SE15      29.96F HX  94
COLEMAN        SUNNY     95  58  28 SE8       29.98S HX  94
BRADY          MOSUNNY   91  61  35 E8        29.98F HX  91
$$

TXZ143>147-156>162-174-175-280000-
CENTRAL TEXAS

CITY           SKY/WX    TMP DP  RH WIND       PRES   REMARKS
WACO           SUNNY     95  61  32 E12       29.94F HX  95
WACO-TSTC      SUNNY     95  59  30 E7        29.94F HX  94
WACO-MCGREGOR  SUNNY     97  61  30 E9        29.95F HX  97
HILLSBORO      SUNNY     94  60  32 E8        29.96F HX  94
CORSICANA      SUNNY     94  56  27 E8        29.97F HX  92
MEXIA          SUNNY     92  61  35 E8        29.95S HX  92
HEARNE           N/A     94  58  29 CALM      29.94S HX  93
CAMERON        SUNNY     96  58  28 CALM      29.93F HX  94
TEMPLE         SUNNY     95  59  30 E13G21    29.95S HX  94
KILLEEN        MOSUNNY   93  61  33 NE9       29.95F HX  93
KILLEEN-SKYLRK SUNNY     93  61  33 E8        29.95S HX  93
FORT HOOD      MOSUNNY   96  60  30 E8        29.95F HX  96
GATESVILLE     SUNNY     93  61  33 E7        29.97F HX  93
HAMILTON       MOSUNNY   93  59  31 E9G20     29.99S HX  92
LAMPASAS       MOSUNNY   96  64  35 E9        29.96F HX  98
$$

TXZ095>097-106>112-122>126-135>138-148>153-164>167-280000-
EAST TEXAS

CITY           SKY/WX    TMP DP  RH WIND       PRES   REMARKS
PARIS          MOSUNNY   91  64  40 E8        29.99F HX  93
SULPHUR SPRNGS SUNNY     91  60  36 SE6       30.00F HX  90
CLARKSVILLE    MOSUNNY   93  62  35 E9        29.99S HX  93
MOUNT PLEASANT SUNNY     91  60  35 E8        29.99F HX  90
GILMER         SUNNY     93  63  36 E7        29.99F HX  94
MINEOLA        SUNNY     91  61  35 E5        29.98F HX  91
TYLER          SUNNY     94  51  23 E10       29.97F HX  91
LONGVIEW       SUNNY     93  60  33 E5        29.96F HX  93
MARSHALL       MOSUNNY   94  59  31 E3        29.99F HX  93
ATHENS         SUNNY     91  55  29 MISG      29.96S
PALESTINE      SUNNY     93  60  33 E6        29.97F HX  92
JACKSONVILLE   SUNNY     91  58  33 E6        30.00F
HENDERSON      SUNNY     92  58  31 E7        29.97F HX  91
NACOGDOCHES    MOSUNNY   91  64  40 E7        29.96F HX  93
LUFKIN         SUNNY     94  68  42 NE8       29.95F HX  98
$$

SUPPLEMENTAL OBSERVATIONS (CENTRAL)

CITY           SKY/WX    TMP DP  RH WIND       PRES   REMARKS
LAKE TEXOMA      N/A     91  63  38 E8          N/A  HX  92
CADDO GRASSLND   N/A     91  63  38 E6          N/A  HX  92
PAT MAYSE LAKE   N/A     91  66  43 E8          N/A  HX  94
GREENVILLE       N/A     91  63  38 E9          N/A  HX  92
CEDAR HILL       N/A     93  64  38 E2G10       N/A  HX  95
ATHENS           N/A     93  55  27 SE8         N/A  HX  91
PALESTINE        N/A     93  63  36 SE6         N/A  HX  94
LAKE LIMESTONE   N/A     93  59  31 NE7         N/A  HX  92
MCGREGOR         N/A     95  59  30 E9          N/A  HX  94
TEMPLE           N/A     93  55  27 E8          N/A  HX  91
$$

SUPPLEMENTAL OBSERVATIONS (WEST)

CITY           SKY/WX    TMP DP  RH WIND       PRES   REMARKS
POSSUM KINGDOM   N/A     97  59  28 E10         N/A  HX  96
LBJ GRASSLAND    N/A     95  63  34 E7          N/A  HX  96
GRANBURY         N/A     95  63  34 SE13        N/A  HX  96
COMANCHE         N/A     93  61  33 E13         N/A  HX  93
HAMBY            N/A     97  57  26 SE8         N/A  HX  95
IVIE RESERVOIR   N/A     97  61  30 E14         N/A  HX  97
COLORADO BEND    N/A     93  61  33 E8G17       N/A  HX  93
$$

SUPPLEMENTAL OBSERVATIONS (EAST)

CITY           SKY/WX    TMP DP  RH WIND       PRES   REMARKS
CLARKSVILLE      N/A     90  64  43 E7          N/A  HX  91
TEXARKANA        N/A     90  68  48 NE2         N/A  HX  93
LINDEN           N/A    N/A N/A N/A E5          N/A
GILMER           N/A     93  59  31 E5          N/A  HX  92
HENDERSON        N/A     93  61  33 E7          N/A  HX  93
LUFKIN           N/A     93  66  40 MISG        N/A  HX  96
S SABINE NF      N/A     91  68  46 E3          N/A  HX  95
$$

SUPPLEMENTAL OBSERVATIONS ARE A COLLECTION OF AUTOMATED INSTRUMENTS
THAT ARE MAINTAINED BY A VARIETY OF FEDERAL AND STATE AGENCIES.
CERTAIN ELEMENTS...SUCH AS HUMIDITY VALUES AND SUSTAINED WIND
SPEEDS...MAY BE APPROXIMATED.



USA.gov is the U.S. government's official web portal to all federal, state and local government web resources and services.